Cloud_Cover
24 67 100 100 100 69 100 100 100 100 89 34 81 33 26 8 18 5 5 5 1 5 80 100 100 23 5 2 5 0 0 0 2 2 3 3 5 5 21 5 5 5 5 5
100 100 100 100 100 13 6 89 100 100 100 57 5 26 5 5 3 3 6 16 30 22 20 5 0 3 5 5 32 8 5 5 10 5 5 5 5 5 5 5 5 5 5 5
44 100 100 100 99 98 68 6 33 100 100 100 86 17 28 6 5 5 18 34 67 77 59 33 3 1 7 84 100 100 13 5 15 5 8 22 28 16 20 5 5 5 5 5
39 100 100 100 100 95 95 100 100 99 13 15 33 6 60 78 12 5 5 5 5 1 39 96 46 79 100 88 85 100 97 100 100 80 100 88 54 8 10 5 5 11 6 5
100 100 100 100 100 100 97 100 100 100 100 85 99 82 80 99 99 95 99 43 35 94 100 100 96 77 100 100 100 100 100 100 100 100 100 70 5 5 5 5 5 54 12 5
97 97 75 100 100 62 100 100 100 94 99 95 100 90 10 52 63 64 45 100 100 100 100 100 100 100 100 100 100 73 52 5 27 91 20 8 36 20 5 5 5 5 6 6
100 100 100 83 59 84 57 100 92 22 95 84 73 8 8 51 51 82 100 100 100 100 100 100 100 100 100 98 71 42 5 4 62 98 100 26 5 5 5 6 19 31 64 23
100 100 100 100 100 100 99 92 50 83 100 44 98 98 84 50 67 65 72 82 100 100 100 100 100 100 100 96 80 96 100 100 100 94 5 5 5 5 5 5 9 35 71 6
100 93 100 100 100 100 100 100 100 99 22 66 59 67 92 100 100 100 100 81 82 84 100 100 100 100 100 100 100 100 99 71 9 5 5 5 5 5 5 5 5 5 11 5
100 100 100 100 100 100 100 100 100 97 100 100 64 84 100 100 100 100 100 99 80 100 97 100 100 100 100 100 100 8 5 5 5 5 5 5 5 5 5 5 5 5 5 5
100 100 100 100 100 100 100 100 100 100 100 100 100 100 100 100 100 100 100 100 100 100 100 100 100 100 100 100 90 8 5 5 5 12 56 5 5 21 41 77 87 5 5 5
100 100 100 100 100 100 100 100 100 100 98 100 100 100 100 100 100 87 100 100 100 100 100 100 100 100 100 100 72 27 8 5 5 8 5 5 5 7 35 98 100 100 45 60
100 100 100 100 100 100 100 100 100 100 98 100 100 100 100 100 100 100 100 100 100 100 100 100 100 100 100 75 5 7 29 5 9 33 5 9 57 51 40 90 100 100 100 100
100 100 100 100 100 100 100 100 100 100 100 100 100 100 96 100 100 100 100 100 100 100 100 100 100 100 26 5 5 5 5 5 5 5 5 5 59 72 100 100 100 100 100 100
100 100 100 100 100 100 100 100 100 100 100 100 100 55 100 100 100 100 100 100 100 100 100 100 100 63 5 5 5 5 5 16 5 5 5 5 100 100 100 100 100 100 100 100
100 100 100 100 100 100 100 97 95 67 99 100 100 60 100 100 100 100 100 100 100 100 100 100 100 99 24 15 5 5 6 5 5 5 5 6 68 100 100 100 100 100 100 100
100 100 100 100 100 100 76 34 99 100 100 100 100 100 100 100 100 100 100 100 100 100 100 95 63 66 24 5 5 14 5 5 5 5 5 37 83 88 71 68 98 100 100 97
100 100 100 100 100 100 63 100 100 96 100 100 100 100 100 100 100 100 100 100 100 100 100 8 32 5 5 5 6 6 5 5 5 5 5 78 88 82 100 100 100 99 44 10
100 100 100 100 100 100 100 100 100 100 100 100 100 100 100 100 100 100 100 100 100 99 23 13 42 15 5 5 5 5 5 5 24 5 10 60 94 98 100 100 98 89 88 95
100 100 100 100 100 68 100 100 100 100 100 100 100 100 100 100 100 100 100 99 94 100 88 76 81 98 17 5 5 5 5 86 87 58 48 68 98 100 100 93 98 100 96 19
100 100 100 100 100 58 100 100 100 100 100 100 100 100 100 100 98 88 94 100 100 100 100 100 67 6 5 5 9 53 8 100 79 99 77 100 100 100 100 100 100 93 94 73
100 100 100 100 100 99 100 100 100 100 97 100 100 100 100 57 100 88 100 100 100 99 95 19 5 5 5 5 78 72 49 36 50 98 100 100 100 100 100 99 19 5 9 5
100 100 100 100 100 100 100 100 100 100 100 100 100 100 100 100 81 87 98 89 9 14 44 61 5 5 46 5 44 95 46 54 98 100 100 100 100 100 98 40 5 5 8 13
100 100 100 100 100 100 100 100 100 100 100 100 100 100 100 100 100 68 98 20 44 17 48 99 52 5 35 90 98 100 87 39 98 99 100 100 100 86 59 12 9 5 5 5
100 100 100 100 98 100 100 100 92 98 100 80 92 100 100 100 100 100 18 5 13 81 26 100 100 99 86 98 100 92 94 78 67 100 100 100 100 100 83 50 40 8 14 5
100 100 100 97 100 100 100 100 36 46 73 96 99 100 100 100 97 8 5 13 61 58 5 54 88 89 99 100 100 100 84 99 90 100 100 100 100 100 66 73 43 71 51 93